Regional Weather Roundup
Issued by NWS

Home | Current Version | Previous Version | Graphics & Text | Print | Product List | Glossary On
Versions: 1 2 3 4 5 6 7 8 9 10 11 12 13 14 15 16 17 18 19 20 21 22 23 24 25 26 27 28 29 30 31 32 33 34 35 36 37 38 39 40 41 42 43 44 45 46 47 48 49 50
611
ASUS43 KDTX 200410
RWRMI
MICHIGAN HOURLY REGIONAL WEATHER ROUNDUP
NATIONAL WEATHER SERVICE DETROIT/PONTIAC MI
1100 PM EST FRI JAN 19 2018

NOTE: "FAIR" INDICATES FEW OR NO CLOUDS BELOW 12,000 FEET WITH NO
SIGNIFICANT WEATHER AND/OR OBSTRUCTION TO VISIBILITY.

MIZ047>049-052>055-059>063-066>070-074>076-081>083-200500-
SOUTHEAST LOWER MICHIGAN

CITY           SKY/WX    TMP DP  RH WIND       PRES   REMARKS
ADRIAN         FAIR      32  23  69 SW15G23   29.80R WCI  22
ALMA           FAIR      35  25  66 SW15G22   29.68S WCI  25
ANN ARBOR      FAIR      33  24  69 S16G24    29.76S WCI  23
BAD AXE        FAIR      37  23  59 SW18G26   29.62S WCI  26
CARO           FAIR      36  25  62 SW17G26   29.65R WCI  26
DETROIT CITY   FAIR      37  23  56 SW23G35   29.74S WCI  26
DETROIT        MOCLDY    36  24  62 SW25G33   29.77S WCI  24
FLINT          FAIR      37  23  56 SW20G25   29.71R WCI  27
GROSSE ILE     FAIR      36  24  63 SW13      29.76S WCI  27
HILLSDALE      FAIR      34  23  64 SW16G25   29.77S WCI  23
HOWELL         FAIR      37  25  63 SW12G18   29.71S WCI  29

CITY           SKY/WX    TMP DP  RH WIND       PRES   REMARKS
JACKSON        FAIR      37  24  59 SW18G31   29.75R WCI  27
LAMBERTVILLE   FAIR      36  24  61 SW15G26   29.81R WCI  26
LANSING        FAIR      36  24  62 SW18G29   29.72R WCI  26
LAPEER         FAIR      36  24  60 SW15      29.68S WCI  27
MONROE         FAIR      37  22  56 SW22G32   29.77S WCI  25
MT. CLEMENS    CLOUDY    34  22  62 SW22G28   29.71F WCI  22
PONTIAC        CLOUDY    35  24  64 SW13G18   29.71R WCI  26
PORT HOPE        N/A     36  23  59 SW16G28   29.57R WCI  26
PORT HURON     FAIR      36  23  60 SW15G26   29.71R WCI  26
TRI CITIES     FAIR      34  25  69 SW23      29.64S WCI  22
MIDLAND        FAIR      36  24  64 SW13G18   29.64S WCI  27
TROY           FAIR      35  24  63 SW16      29.76R WCI  26
SAGINAW HB     FAIR      34  25  69 SW23G29   29.65S WCI  22
$$
MIZ043>046-050>051-056>058-064>065-071>073-077>080-200500-
SOUTHWEST LOWER MICHIGAN

CITY           SKY/WX    TMP DP  RH WIND       PRES   REMARKS
BATTLE CREEK   FAIR      34  24  67 SW21      29.78R WCI  22
BENTON HARBOR  FAIR      38  24  57 S12       29.78R WCI  30
BIG RAPIDS     FAIR      36  27  70 SW14G29   29.63S WCI  27
COLDWATER      FAIR      35  24  64 SW14      29.78S WCI  26
FREMONT        FAIR      37  27  66 SW16G22   29.69R WCI  27
HOLLAND        FAIR      37  27  67 SW23G37   29.74R WCI  26
GRAND RAPIDS   MOCLDY    36  24  62 SW16      29.72S WCI  26
IONIA          FAIR      35  24  64 SW20G25   29.70S WCI  24
KALAMAZOO      FAIR      36  24  62 SW16      29.78R WCI  26
LUDINGTON      FAIR      37  31  78 SW17G29   29.64S WCI  28
MARSHALL       FAIR      36  24  61 SW16      29.77R WCI  26
MOUNT PLEASANT FAIR      37  25  61 SW13G24   29.64S WCI  29
MUSKEGON       MOCLDY    38  30  73 SW23      29.72R WCI  27
SOUTH HAVEN    FAIR      39  25  56 SW12G28   29.77R WCI  32
$$
MIZ016>042-200500-
NORTHERN LOWER MICHIGAN

CITY           SKY/WX    TMP DP  RH WIND       PRES   REMARKS
ALPENA         FAIR      37  26  64 SW17G29   29.50S WCI  27
BEAVER ISLAND  FAIR      37  31  77 SW22G30   29.49R WCI  27
BELLAIRE       FAIR      37  30  75 SW13G21   29.54S WCI  29
CADILLAC       FAIR      35  28  74 SW17G25   29.57S WCI  25
CHARLEVOIX     FAIR      39  29  68 SW18G25   29.53S WCI  29
FRANKFORT      FAIR      38  33  82 SW14G28   29.59S WCI  30
GAYLORD        FAIR      35  27  72 W29G38    29.48F WCI  22
GRAYLING       FAIR      35  25  67 W12G18    29.55S WCI  26
HARBOR SPRINGS FAIR      36  28  74 SW9G16    29.50S WCI  29
HOUGHTON LAKE  FAIR      34  26  72 SW16G24   29.57R WCI  24
MANISTEE       FAIR      39  29  67 SW15G22   29.62S WCI  31
OSCODA         FAIR      33  23  66 SW22      29.55R WCI  21
PELLSTON       FAIR      39  28  64 W23G36    29.46F WCI  28
ROGERS CITY    FAIR      38  26  62 SW17G25   29.46F WCI  28
TRAVERSE CITY  FAIR      40  28  62 VRB7      29.55S
$$
MIZ007>008-015-200500-
EASTERN UPPER MICHIGAN

CITY           SKY/WX    TMP DP  RH WIND       PRES   REMARKS
KINROSS        CLOUDY    35  30  82 SW13G18   29.43R WCI  26
MACKINAC ISLAN FAIR      37  29  75 SW20G29   29.45S WCI  26
NEWBERRY       FAIR      33  31  93 SW13G20   29.42R WCI  24
S. S. MARIE    FAIR      38  31  76 W15       29.42R WCI  29
MUNISING         N/A     35  27  72 SW8       29.42R WCI  29
$$
MIZ004>006-011>014-085-200500-
CENTRAL UPPER MICHIGAN

CITY           SKY/WX    TMP DP  RH WIND       PRES   REMARKS
ESCANABA       FAIR      30  25  81 W8        29.49R WCI  22
MENOMINEE      FAIR      37  26  64 W8        29.54R WCI  31
SAWYER-GWINN   FAIR      29  23  77 SW8       29.43R WCI  21
$$
MIZ001>003-009>011-084-200500-
WESTERN UPPER MICHIGAN

CITY           SKY/WX    TMP DP  RH WIND       PRES   REMARKS
IRON MOUNTAIN  FAIR      35  26  69 W9        29.48R WCI  28
HOUGHTON       FAIR      40  27  59 W29G39    29.41R WCI  29
COPPER HARBOR    N/A     41  29  62 N17G37    29.37R
IRONWOOD       FAIR      38  27  64 W14       29.53R WCI  30
$$

ABBREVIATIONS USED IN REMARKS
   TC - TEMPERATURE IN CELSIUS
  WCI - WIND CHILL INDEX
   HX - HEAT INDEX
  VSB - VISIBILITY





USA.gov is the U.S. government's official web portal to all federal, state and local government web resources and services.